Weather reports worldwide

Advertisment
Coleshill, United Kingdom (3535): temperature & dewpoint: 16.05.2018 16:00:00 - 22.05.2018 16:00:00 (BST)Coleshill, United Kingdom (3535): temperature -20cm & temperature -100cm: 16.05.2018 16:00:00 - 22.05.2018 16:00:00 (BST)Coleshill, United Kingdom (3535): wind speed: 16.05.2018 16:00:00 - 22.05.2018 16:00:00 (BST)Coleshill, United Kingdom (3535): wind direction: 16.05.2018 16:00:00 - 22.05.2018 16:00:00 (BST)Coleshill, United Kingdom (3535): reduced air pressure: 16.05.2018 16:00:00 - 22.05.2018 16:00:00 (BST)Coleshill, United Kingdom (3535): visibility: 16.05.2018 16:00:00 - 22.05.2018 16:00:00 (BST)Coleshill, United Kingdom (3535): precipitation: 16.05.2018 16:00:00 - 22.05.2018 16:00:00 (BST)
Date & Time tt [°C] td [°C] tt -20cm [°C] tt -100cm [°C] ff [km/h] ff [kn] dd ppp [hPa] vv [km] rr [mm]
22.05.2018 16:00:00 20,1 10,2 - - 18 10 NE 1018,7 45 0,0
22.05.2018 15:00:00 19,7 11,6 - - 21 11 N 1018,8 30 0,0
22.05.2018 14:00:00 18,6 10,7 - - 18 10 NNE 1018,8 26 0,0
22.05.2018 13:00:00 17,0 10,1 - - 18 10 N 1019,0 22 0,0
22.05.2018 12:00:00 16,6 10,9 - - 21 11 NNE 1019,0 16 0,0
22.05.2018 11:00:00 14,9 9,3 - - 22 12 N 1019,0 22 0,0
22.05.2018 10:00:00 14,7 10,0 15,4 12,7 18 10 N 1018,8 20 0,0
22.05.2018 09:00:00 13,7 9,5 - - 18 10 N 1018,5 17 0,0
22.05.2018 08:00:00 12,3 8,8 - - 21 11 N 1018,1 13 0,0
22.05.2018 07:00:00 11,6 9,2 - - 15 8 N 1017,6 13 0,0
22.05.2018 06:00:00 9,4 9,1 - - 9 5 N 1017,4 6 0,0
22.05.2018 05:00:00 9,1 8,6 - - 9 5 NW 1017,2 6 0,0
22.05.2018 04:00:00 9,6 9,0 - - 9 5 NNW 1017,0 7 0,0
22.05.2018 03:00:00 9,6 8,9 - - 9 5 NNW 1016,9 9 0,0
22.05.2018 02:00:00 10,6 8,9 - - 8 4 NW 1016,8 15 0,0
22.05.2018 01:00:00 10,9 8,6 - - 9 5 NNW 1016,7 16 0,0
22.05.2018 00:00:00 11,4 8,9 - - 8 4 N 1016,6 12 0,0
21.05.2018 23:00:00 13,1 10,1 - - 9 5 NW 1016,6 13 0,0
21.05.2018 22:00:00 14,4 8,3 - - 8 4 NNW 1016,3 45 0,0
21.05.2018 21:00:00 16,9 9,1 - - 4 2 N 1015,8 45 0,0
21.05.2018 20:00:00 19,2 9,3 - - 9 5 E 1015,3 45 0,0
21.05.2018 19:00:00 19,9 9,2 - - 8 4 NE 1014,8 28 0,0
21.05.2018 18:00:00 21,7 9,8 - - 15 8 NNE 1014,7 29 0,0
21.05.2018 17:00:00 22,5 11,0 - - 13 7 NNE 1014,9 29 0,0
21.05.2018 16:00:00 22,1 11,1 - - 13 7 NNE 1015,3 18 0,0
21.05.2018 15:00:00 21,9 11,9 - - 13 7 NE 1015,7 14 0,0
21.05.2018 14:00:00 21,4 10,9 - - 9 5 NE 1016,2 13 0,0
21.05.2018 13:00:00 20,3 10,3 - - 11 6 NNE 1016,6 14 0,0
21.05.2018 12:00:00 19,4 10,1 - - 9 5 NE 1017,3 15 0,0
21.05.2018 11:00:00 18,0 8,8 - - 8 4 NE 1017,6 14 0,0
21.05.2018 10:00:00 17,4 8,7 14,9 12,5 8 4 E 1017,9 11 0,0
21.05.2018 09:00:00 14,5 8,0 - - 5 3 NNE 1018,4 12 0,0
21.05.2018 08:00:00 12,2 9,9 - - 4 2 NNE 1018,8 10 0,0
21.05.2018 07:00:00 8,8 8,7 - - 2 1 ENE 1018,9 9 0,0
21.05.2018 06:00:00 6,5 6,2 - - 4 2 N 1018,7 4,8 0,0
21.05.2018 05:00:00 6,3 5,6 - - 2 1 ENE 1018,8 6 0,0
21.05.2018 04:00:00 7,7 6,7 - - 4 2 E 1019,2 9 0,0
21.05.2018 03:00:00 9,6 7,4 - - 4 2 S 1019,1 18 0,0
21.05.2018 02:00:00 11,2 8,1 - - 5 3 SSE 1019,3 30 0,0
21.05.2018 01:00:00 12,7 8,7 - - 8 4 SSE 1019,6 35 0,0
21.05.2018 00:00:00 13,9 8,7 - - 8 4 SSE 1019,7 45 0,0
20.05.2018 23:00:00 14,8 9,2 - - 9 5 SE 1019,5 40 0,0
20.05.2018 22:00:00 14,7 8,3 - - 9 5 ESE 1019,5 40 0,0
20.05.2018 21:00:00 15,7 8,4 - - 5 3 E 1019,0 50 0,0
20.05.2018 20:00:00 18,8 8,2 - - 5 3 SSE 1018,7 45 0,0
20.05.2018 19:00:00 20,9 8,3 - - 8 4 SE 1018,6 35 0,0
20.05.2018 18:00:00 21,8 9,3 - - 11 6 SSE 1018,8 29 0,0
20.05.2018 17:00:00 22,2 8,8 - - 8 4 SE 1019,1 21 0,0
20.05.2018 16:00:00 22,6 9,4 - - 8 4 SE 1019,7 29 0,0
20.05.2018 15:00:00 21,9 8,4 - - 8 4 SSE 1020,3 30 0,0
20.05.2018 14:00:00 21,5 8,2 - - 11 6 SE 1020,7 29 0,0
20.05.2018 13:00:00 21,3 10,5 - - 8 4 ESE 1021,3 28 0,0
20.05.2018 12:00:00 20,2 9,6 - - 9 5 SSE 1021,5 40 0,0
20.05.2018 11:00:00 19,4 11,4 - - 8 4 SE 1021,9 14 0,0
20.05.2018 10:00:00 17,9 10,9 14,4 12,2 5 3 SE 1022,3 25 0,0
20.05.2018 09:00:00 14,7 9,8 - - 4 2 SSE 1022,5 14 0,0
20.05.2018 08:00:00 12,5 9,5 - - 8 4 SSE 1022,5 12 0,0
20.05.2018 07:00:00 10,0 8,8 - - 5 3 S 1022,4 9 0,0
20.05.2018 06:00:00 7,1 6,3 - - 4 2 SE 1022,4 10 0,0
20.05.2018 05:00:00 8,0 6,4 - - 4 2 SW 1022,4 11 0,0
20.05.2018 04:00:00 9,7 7,2 - - 5 3 SSE 1022,2 19 0,0
20.05.2018 03:00:00 10,3 7,0 - - 8 4 SSE 1022,0 27 0,0
20.05.2018 02:00:00 10,9 6,5 - - 9 5 SSE 1022,3 35 0,0
20.05.2018 01:00:00 12,2 6,3 - - 9 5 SSE 1022,4 40 0,0
20.05.2018 00:00:00 13,0 6,9 - - 8 4 SSE 1022,3 35 0,0
19.05.2018 23:00:00 13,7 7,4 - - 8 4 SSE 1022,4 30 0,0
19.05.2018 22:00:00 14,5 7,9 - - 5 3 SSE 1022,1 40 0,0
19.05.2018 21:00:00 16,1 7,8 - - 5 3 SSE 1021,8 35 0,0
19.05.2018 20:00:00 18,2 8,0 - - 8 4 SSE 1021,6 28 0,0
19.05.2018 19:00:00 19,2 7,5 - - 11 6 SSE 1021,6 40 0,0
19.05.2018 18:00:00 20,5 7,9 - - 8 4 SE 1021,8 30 0,0
19.05.2018 17:00:00 20,8 7,6 - - 9 5 SE 1022,0 20 0,0
19.05.2018 16:00:00 21,3 8,5 - - 8 4 ESE 1022,3 28 0,0
19.05.2018 15:00:00 21,0 8,8 - - 8 4 E 1022,6 21 0,0
19.05.2018 14:00:00 20,5 7,0 - - 4 2 SSE 1023,1 16 0,0
19.05.2018 13:00:00 19,4 7,4 - - 9 5 E 1023,5 21 0,0
19.05.2018 12:00:00 18,2 6,9 - - 5 3 NNE 1024,0 22 0,0
19.05.2018 11:00:00 17,9 7,4 - - 8 4 NNE 1024,1 24 0,0
19.05.2018 10:00:00 16,2 8,8 13,7 12,2 4 2 N 1024,4 16 0,0
19.05.2018 09:00:00 13,8 9,0 - - 4 2 NNE 1024,5 20 0,0
19.05.2018 08:00:00 10,2 8,9 - - 2 1 NNE 1024,6 19 0,0
19.05.2018 07:00:00 6,7 6,6 - - 0 0 N 1024,4 11 0,0
19.05.2018 06:00:00 4,5 4,3 - - 2 1 WSW 1024,3 6 0,0
19.05.2018 05:00:00 4,6 4,3 - - 4 2 S 1024,1 4,6 0,0
19.05.2018 04:00:00 4,6 4,1 - - 0 0 N 1024,3 2,8 0,0
19.05.2018 03:00:00 6,2 5,8 - - 4 2 S 1024,4 9 0,0
19.05.2018 02:00:00 6,4 6,0 - - 0 0 N 1024,6 9 0,0
19.05.2018 01:00:00 5,2 3,2 - - 4 2 ENE 1024,6 6 0,0
19.05.2018 00:00:00 8,4 6,4 - - 5 3 S 1024,5 21 0,0
18.05.2018 23:00:00 9,5 5,7 - - 4 2 S 1024,5 24 0,0
18.05.2018 22:00:00 12,3 6,8 - - 4 2 SSE 1024,3 30 0,0
18.05.2018 21:00:00 13,1 5,9 - - 4 2 ESE 1024,1 35 0,0
18.05.2018 20:00:00 15,3 6,7 - - 4 2 E 1023,9 24 0,0
18.05.2018 19:00:00 17,1 6,3 - - 8 4 ENE 1023,7 25 0,0
18.05.2018 18:00:00 16,4 7,7 - - 8 4 N 1024,0 28 0,0
18.05.2018 17:00:00 16,4 7,2 - - 9 5 NNE 1024,2 20 0,0
18.05.2018 16:00:00 16,3 5,6 - - 8 4 NNE 1024,2 23 0,0
18.05.2018 15:00:00 16,3 6,7 - - 8 4 NE 1024,5 22 0,0
18.05.2018 14:00:00 16,5 7,5 - - 5 3 ENE 1024,8 26 0,0
18.05.2018 13:00:00 15,1 6,8 - - 5 3 NW 1025,4 26 0,0
18.05.2018 12:00:00 14,3 8,0 - - 4 2 N 1025,8 23 0,0
18.05.2018 11:00:00 13,4 7,5 - - 4 2 NE 1026,2 17 0,0
18.05.2018 10:00:00 11,4 6,3 13,7 12,2 4 2 SSW 1026,6 19 0,0
18.05.2018 09:00:00 9,8 6,4 - - 5 3 SE 1026,9 15 0,0
18.05.2018 08:00:00 8,0 7,4 - - 4 2 S 1027,1 18 0,0
18.05.2018 07:00:00 5,6 5,6 - - 2 1 S 1027,1 13 0,0
18.05.2018 06:00:00 2,3 2,1 - - 2 1 S 1027,1 7 0,0
18.05.2018 05:00:00 2,4 2,2 - - 0 0 N 1027,0 7 0,0
18.05.2018 04:00:00 2,6 2,3 - - 2 1 W 1027,2 7 0,0
18.05.2018 03:00:00 3,0 2,7 - - 2 1 ENE 1027,3 4,6 0,0
18.05.2018 02:00:00 3,6 2,8 - - 0 0 N 1027,6 9 0,0
18.05.2018 01:00:00 5,1 4,1 - - 2 1 ENE 1027,7 21 0,0
18.05.2018 00:00:00 6,5 4,6 - - 2 1 SSW 1028,1 29 0,0
17.05.2018 23:00:00 7,6 5,0 - - 5 3 SE 1027,7 35 0,0
17.05.2018 22:00:00 8,9 4,5 - - 5 3 E 1027,6 35 0,0
17.05.2018 21:00:00 10,9 4,5 - - 5 3 ENE 1027,0 30 0,0
17.05.2018 20:00:00 12,9 5,1 - - 8 4 NE 1026,9 30 0,0
17.05.2018 19:00:00 13,6 4,9 - - 9 5 NE 1027,0 45 0,0
17.05.2018 18:00:00 14,4 5,4 - - 9 5 ENE 1026,9 30 0,0
17.05.2018 17:00:00 15,0 5,3 - - 15 8 NE 1027,2 30 0,0
17.05.2018 16:00:00 15,0 5,2 - - 13 7 ENE 1027,3 21 0,0
17.05.2018 15:00:00 14,9 5,3 - - 13 7 ENE 1027,6 19 0,0
17.05.2018 14:00:00 14,4 5,6 - - 13 7 NE 1028,0 45 0,0
17.05.2018 13:00:00 13,8 4,3 - - 15 8 NNE 1028,5 23 0,0
17.05.2018 12:00:00 13,0 3,9 - - 13 7 NNE 1028,9 50 0,0
17.05.2018 11:00:00 11,7 3,9 - - 11 6 NE 1029,0 40 0,0
17.05.2018 10:00:00 10,4 4,4 13,7 12,0 15 8 NE 1029,4 30 0,0
17.05.2018 09:00:00 8,8 5,2 - - 15 8 NNE 1029,6 35 0,0
17.05.2018 08:00:00 6,9 5,4 - - 13 7 NNE 1029,6 12 0,0
17.05.2018 07:00:00 4,6 4,3 - - 11 6 N 1029,6 13 0,0
17.05.2018 06:00:00 2,2 2,0 - - 8 4 NNW 1029,6 8 0,0
17.05.2018 05:00:00 2,2 1,8 - - 8 4 N 1029,6 10 0,0
17.05.2018 04:00:00 2,8 2,4 - - 9 5 NNW 1029,6 12 0,0
17.05.2018 03:00:00 3,1 2,4 - - 5 3 N 1029,9 13 0,0
17.05.2018 02:00:00 4,3 3,3 - - 5 3 NNW 1030,2 16 0,0
17.05.2018 01:00:00 4,2 3,1 - - 8 4 N 1030,4 16 0,0
17.05.2018 00:00:00 5,8 3,6 - - 11 6 NNE 1030,2 23 0,0
16.05.2018 23:00:00 7,2 4,0 - - 8 4 NE 1030,1 21 0,0
16.05.2018 22:00:00 7,9 4,7 - - 9 5 NNE 1029,6 21 0,0
16.05.2018 21:00:00 9,5 5,1 - - 13 7 NE 1029,0 22 0,0
16.05.2018 20:00:00 10,8 5,5 - - 15 8 NNE 1028,9 26 0,0
16.05.2018 19:00:00 11,8 5,7 - - 18 10 NNE 1028,7 30 0,0
16.05.2018 18:00:00 13,5 6,4 - - 18 10 NNE 1028,4 30 0,0
16.05.2018 17:00:00 13,1 5,9 - - 21 11 NE 1028,3 40 0,0
16.05.2018 16:00:00 13,2 6,5 - - 16 9 NNE 1028,4 29 0,0

tt = temperature
td = dewpoint
tt -20cm = temperature -20cm
tt -100cm = temperature -100cm
ff = wind speed
dd = wind direction
ppp = reduced air pressure
vv = visibility
rr = precipitation

Next stations